Tracking 19903 objects as of 17-Oct-2019
HD Live streaming from Space Station
objects crossing your sky now

SL-8 R/B

Track SL-8 R/B now!
10-day predictions


NORAD ID: 8295
Int'l Code: 1975-086J
Perigee: 1,489.7 km
Apogee: 1,691.6 km
Inclination: 74.0 °
Period: 117.8 minutes
Semi major axis: 7961 km
RCS: 6.5123 m2 (large)
Launch date: September 17, 1975
Source: Commonwealth of Independent States (former USSR) (CIS)
Launch site: PLESETSK MISSILE AND SPACE COMPLEX (PKMTR)

Note: This is a ROCKET BODY
aabbcc
Your satellite tracking list
Your tracking list is empty




NASA's NSSDC Master Catalog

Two Line Element Set (TLE):
1  8295U 75086J   19289.30145403  .00000064  00000-0  72103-3 0  9995
2  8295  74.0090 301.2405 0126822  17.1016 100.6586 12.22081340966930
Source of the keplerian elements: AFSPC